Simultaneous Nadir Overpasses (SNOs) Predictions

Prediction of SNOs between NOAA-15 and METOP-C Satellite Orbit:

Table of predicted SNOs for the next 14.0 days since TLE Epoch: 3/13/2020
Index Date (NOAA-15) Time (NOAA-15) Lat,Lon (NOAA-15) SZA (NOAA-15 ) Date (METOP-C) Time (METOP-C) Lat,Lon (METOP-C) SZA (METOP-C ) Distance(km) Time Diff (sec)
1 03/16/2020 08:57:53 -80.91, -99.59 96.20 03/16/2020 08:56:49 -80.89, -99.47 96.22 2.80 64
2 03/16/2020 09:48:28 80.90, 67.94 83.80 03/16/2020 09:47:30 80.89, 67.82 83.76 2.49 58
3 03/16/2020 10:38:55 -80.90,-124.64 96.22 03/16/2020 10:38:10 -80.90,-124.59 96.22 1.13 45
4 03/16/2020 11:29:31 80.91, 42.53 83.77 03/16/2020 11:28:51 80.90, 42.70 83.76 3.11 40
5 03/16/2020 12:19:58 -80.90,-150.06 96.25 03/16/2020 12:19:32 -80.89,-150.07 96.27 1.11 26
6 03/16/2020 13:10:33 80.90, 17.47 83.75 03/16/2020 13:10:12 80.91, 17.58 83.76 2.51 21
7 03/16/2020 14:01:00 -80.89,-175.12 96.27 03/16/2020 14:00:53 -80.91,-175.19 96.27 1.72 7
8 03/16/2020 14:51:36 80.90, -7.95 83.72 03/16/2020 14:51:34 80.90, -7.90 83.72 0.86 2
9 03/16/2020 15:42:03 -80.90, 159.47 96.30 03/16/2020 15:42:15 -80.90, 159.34 96.31 2.33 12
10 03/16/2020 16:32:39 80.91, -33.37 83.68 03/16/2020 16:32:56 80.90, -33.38 83.67 1.65 17
11 03/16/2020 17:23:06 -80.91, 134.05 96.34 03/16/2020 17:23:36 -80.91, 134.22 96.31 2.91 30
12 03/16/2020 18:13:41 80.90, -58.42 83.66 03/16/2020 18:14:17 80.91, -58.50 83.68 1.47 36
13 03/16/2020 19:04:09 -80.92, 108.63 96.37 03/16/2020 19:04:58 -80.90, 108.74 96.36 2.44 49
14 03/16/2020 19:54:44 80.91, -83.84 83.63 03/16/2020 19:55:39 80.90, -83.97 83.63 2.54 55
15 03/16/2020 20:45:11 -80.91, 83.58 96.39 03/16/2020 20:46:19 -80.91, 83.62 96.36 0.98 68




NCC Satellite Simultaneous Nadir Overpasses (SNOs) Prediction Service
